FW0532 Weather Reports


Display with metric or nautical units.
time (UTC)temp
F
wind
direction
speed
MPH
gust
MPH
rain 1hr
in
rain 24hr
in
rain mn
in
humidity
%
barometer
mb
20260905185347 84 336 1.0 5.0 0.00 0.82 0.42 75 1012.5
20260905184346 84 146 2.0 6.0 0.00 0.82 0.42 76 1012.6
20260905183846 84 360 1.0 4.0 0.00 0.82 0.42 78 1012.6
20260905182846 84 306 2.0 9.0 0.00 0.82 0.42 77 1012.6
20260905182345 83 39 1.0 9.0 0.00 0.82 0.42 76 1012.6
20260905181846 83 164 1.0 5.0 0.00 0.82 0.42 77 1012.6
20260905181346 83 232 2.0 5.0 0.00 0.82 0.42 78 1012.7
20260905180845 83 271 4.0 5.0 0.00 0.82 0.42 77 1012.8
20260905173844 80 16 5.0 6.0 0.00 0.82 0.42 83 1012.6
20260905173344 80 189 0.0 5.0 0.00 0.82 0.42 82 1012.7
20260905172845 79 355 1.0 5.0 0.00 0.82 0.42 84 1012.7
20260905172344 79 318 3.0 3.0 0.00 0.82 0.42 86 1012.6
20260905171844 77 345 0.0 7.0 0.00 0.82 0.42 87 1012.7
20260905171343 77 355 0.0 7.0 0.00 0.82 0.42 87 1012.7
20260905170843 76 240 0.0 6.0 0.00 0.82 0.42 87 1012.9
20260905170343 76 24 0.0 6.0 0.00 0.82 0.42 87 1012.9
20260905165843 76 321 1.0 3.0 0.00 0.82 0.42 88 1013.0
20260905165343 75 317 0.0 3.0 0.00 0.82 0.42 89 1012.7
20260905164843 75 317 0.0 3.0 0.00 0.82 0.42 90 1012.9
20260905164343 75 19 0.0 2.0 0.00 0.82 0.42 90 1013.1
20260905163842 75 19 0.0 2.0 0.00 0.82 0.42 90 1013.0
20260905162842 74 19 0.0 0.0 0.00 0.82 0.42 91 1012.9
20260905162342 74 19 0.0 0.0 0.00 0.82 0.42 91 1013.0
20260905161842 74 19 0.0 0.0 0.00 0.82 0.42 92 1013.0
20260905161342 74 19 0.0 0.0 0.00 0.82 0.42 92 1013.1
20260905160341 75 15 0.0 3.0 0.00 0.82 0.42 92 1013.1
20260905155842 75 82 1.0 1.0 0.00 0.82 0.42 92 1013.0
20260905155341 74 82 0.0 3.0 0.00 0.82 0.42 91 1012.9
20260905154841 74 9 0.0 3.0 0.00 0.82 0.42 90 1013.0
20260905154341 75 9 1.0 3.0 0.00 0.82 0.42 90 1013.0
20260905153840 75 186 0.0 3.0 0.00 0.82 0.42 88 1012.6
20260905153340 75 186 2.0 3.0 0.00 0.82 0.42 88 1012.4
20260905152840 74 186 0.0 2.0 0.00 0.82 0.42 89 1012.3
20260905152340 74 186 0.0 2.0 0.00 0.82 0.42 88 1012.4
20260905151840 74 186 0.0 3.0 0.00 0.82 0.42 87 1012.4
20260905151340 74 186 1.0 3.0 0.00 0.82 0.42 87 1012.5
20260905150840 74 205 2.0 3.0 0.00 0.82 0.42 87 1012.5
20260905150339 75 211 2.0 3.0 0.00 0.82 0.42 86 1012.7
20260905145839 75 189 0.0 4.0 0.00 0.82 0.42 87 1012.5
20260905145339 75 187 1.0 5.0 0.00 0.82 0.42 86 1012.4
20260905144839 75 207 3.0 5.0 0.00 0.82 0.42 86 1012.3
20260905144339 75 202 0.0 6.0 0.00 0.82 0.42 86 1012.3
20260905143839 74 188 3.0 6.0 0.00 0.82 0.42 88 1012.5
20260905143338 74 219 4.0 5.0 0.00 0.82 0.42 89 1012.4
20260905142838 73 231 5.0 6.0 0.00 0.82 0.42 90 1012.2
20260905142338 73 258 1.0 9.0 0.00 0.82 0.42 90 1012.1
20260905141838 73 190 2.0 9.0 0.00 0.82 0.42 92 1012.1
20260905141338 72 209 8.0 9.0 0.00 0.82 0.42 92 1012.1
20260905140838 71 196 5.0 7.0 0.00 0.82 0.42 94 1012.0
20260905140338 70 185 3.0 7.0 0.00 0.82 0.42 94 1012.0
20260905135838 70 185 4.0 6.0 0.00 0.82 0.42 95 1011.8
20260905135337 70 192 3.0 4.0 0.00 0.82 0.42 96 1011.8
20260905134838 70 201 1.0 3.0 0.00 0.82 0.42 96 1012.0
20260905134337 69 178 2.0 4.0 0.00 0.82 0.42 95 1011.8
20260905133837 68 247 1.0 5.0 0.00 0.82 0.42 96 1011.9
20260905132837 69 175 3.0 6.0 0.00 0.82 0.42 96 1011.7
20260905132337 69 190 2.0 3.0 0.00 0.82 0.42 96 1011.9
20260905131337 68 260 0.0 2.0 0.00 0.82 0.42 96 1012.2
20260905130336 68 192 1.0 3.0 0.00 0.82 0.42 95 1012.7
20260905124836 68 243 0.0 2.0 0.00 0.82 0.42 96 1012.6
20260905124335 68 243 0.0 2.0 0.01 0.82 0.42 96 1012.9
20260905123835 68 243 0.0 2.0 0.01 0.82 0.42 96 1012.5
20260905123335 68 344 0.0 2.0 0.03 0.82 0.42 96 1012.6
20260905122834 68 344 0.0 2.0 0.04 0.82 0.42 96 1013.0
20260905121835 68 109 0.0 3.0 0.10 0.82 0.42 96 1013.0
20260905121334 68 109 0.0 5.0 0.13 0.82 0.42 96 1012.8
20260905120834 68 88 1.0 5.0 0.16 0.82 0.42 95 1012.7
20260905120334 68 109 3.0 3.0 0.17 0.82 0.42 95 1012.8
20260905115834 67 115 0.0 3.0 0.18 0.82 0.42 95 1013.0
20260905115333 67 115 0.0 3.0 0.18 0.82 0.42 95 1013.3
20260905114333 67 171 0.0 2.0 0.17 0.81 0.41 95 1013.7
20260905113833 67 171 0.0 2.0 0.17 0.81 0.41 95 1013.7
20260905113333 67 171 0.0 3.0 0.15 0.79 0.39 95 1013.8
20260905112833 67 221 1.0 3.0 0.15 0.78 0.38 95 1014.2
20260905112333 67 190 0.0 2.0 0.12 0.75 0.35 95 1014.3
20260905111833 67 190 0.0 3.0 0.09 0.72 0.32 95 1014.4
20260905111332 67 190 2.0 3.0 0.07 0.69 0.29 95 1014.5
20260905110332 67 338 0.0 3.0 0.03 0.65 0.25 95 1014.3
20260905105332 67 218 1.0 3.0 0.03 0.64 0.24 95 1013.7
20260905104832 67 129 0.0 2.0 0.03 0.64 0.24 95 1013.6
20260905104331 67 103 0.0 4.0 0.03 0.64 0.24 95 1013.8
20260905103831 67 103 0.0 5.0 0.04 0.64 0.24 95 1013.8
20260905103331 67 88 2.0 5.0 0.05 0.64 0.24 95 1013.8
20260905102831 67 97 1.0 5.0 0.14 0.63 0.23 95 1013.9
20260905102331 67 74 2.0 4.0 0.14 0.63 0.23 95 1014.3
20260905101331 67 86 1.0 2.0 0.15 0.62 0.22 94 1014.3
20260905100331 68 115 0.0 5.0 0.21 0.62 0.22 94 1014.4
20260905095830 68 81 3.0 5.0 0.21 0.61 0.21 94 1014.3
20260905095330 68 288 2.0 3.0 0.21 0.61 0.21 94 1014.9
20260905094830 68 288 0.0 1.0 0.21 0.61 0.21 94 1015.1
20260905094330 68 288 0.0 2.0 0.21 0.61 0.21 94 1015.2
20260905093329 68 67 0.0 4.0 0.19 0.59 0.19 94 1014.9
20260905093001 68 158 1.0 4.0 0.09 0.49 0.09 94 1014.8